Regional Weather Roundup
Issued by NWS

Home | Current Version | Previous Version | Graphics & Text | Print | Product List | Glossary On
Versions: 1 2 3 4 5 6 7 8 9 10 11 12 13 14 15 16 17 18 19 20 21 22 23 24 25 26 27 28 29 30 31 32 33 34 35 36 37 38 39 40 41 42 43 44 45 46 47 48 49 50
000
ASUS43 KMKX 181011
RWRWI

WISCONSIN REGIONAL WEATHER ROUNDUP
NATIONAL WEATHER SERVICE MILWAUKEE/SULLIVAN WI
500 AM CDT WED OCT 18 2017

NOTE: "FAIR" INDICATES FEW OR NO CLOUDS BELOW 12,000 FEET WITH NO
SIGNIFICANT WEATHER AND/OR OBSTRUCTIONS TO VISIBILITY.

WIZ001-002-006>008-014>016-023>028-181100-
NORTHWEST WISCONSIN

CITY           SKY/WX    TMP DP  RH WIND       PRES   REMARKS
SUPERIOR ARPT  CLEAR     51  43  74 SW6       29.79S
ASHLAND        CLEAR     54  44  69 S7        29.83S
HAYWARD        CLEAR     54  43  66 S8        29.86F
SIREN          CLEAR     51  43  73 S3        29.85R
CUMBERLAND     CLEAR     45  41  87 S7        29.87F
RICE LAKE      CLEAR     46  43  89 E6        29.90S
CHETEK         CLEAR     47  44  91 E9        29.90S
LADYSMITH      CLEAR     48  43  82 SE3       29.92F
EAU CLAIRE     CLEAR     50  44  80 S8        29.90F
MENOMONIE      CLEAR     47  42  84 E5        29.90S
NEW RICHMOND   CLEAR     49  42  76 S7        29.87S
OSCEOLA        CLEAR     52  44  74 CALM      29.88S
$$

WIZ003>005-009-010-017-018-181100-
NORTH CENTRAL WISCONSIN

CITY           SKY/WX    TMP DP  RH WIND       PRES   REMARKS
MANITOWISH WTR CLEAR     45  45 100 S6        29.91S
ARBOR VITAE    CLEAR     52  47  83 S5        29.92S
WOODRUFF       CLEAR     52  47  83 S5        29.92S
RHINELANDER    CLEAR     50  44  80 SW8       29.95S
EAGLE RIVER    CLEAR     48  41  76 S3        29.93S
LAND O LAKES   CLEAR     46  43  87 S3        29.94S
PHILLIPS       CLEAR     48  43  84 S5        29.91S
TOMAHAWK       CLEAR     41  39  95 CALM      29.94F
MEDFORD        CLEAR     49  43  77 S8        29.94S
MERRILL        CLEAR     40  38  96 CALM      29.96S
$$

WIZ029-030-035-036-043>047-181100-
CENTRAL WISCONSIN

CITY           SKY/WX    TMP DP  RH WIND       PRES   REMARKS
WAUSAU         CLEAR     48  43  82 S6        29.96S
MOSINEE        CLEAR     45  43  93 S6        29.99R
MARSHFIELD     CLEAR     46  41  82 S7        29.96S
STEVENS POINT  CLEAR     47  42  82 S7        29.99S
WAUPACA        CLEAR     49  44  81 CALM      30.01S
WAUTOMA        CLEAR     39  38  96 CALM      30.02S
WISC RAPIDS    CLEAR     49  44  83 S6        30.00R
CAMP DOUGLAS   CLEAR     51  43  74 S5        29.99S
$$

WIZ011>013-019>022-031-037>040-048>050-181100-
NORTHEAST WISCONSIN

CITY           SKY/WX    TMP DP  RH WIND       PRES   REMARKS
ANTIGO         CLEAR     43  41  92 S7        29.98S
SHAWANO        CLEAR     51  44  78 CALM      29.99S
OCONTO         CLEAR     52  43  72 SW5       29.99S
STURGEON BAY   CLEAR     53  44  71 S10       30.01S
GREEN BAY      CLEAR     52  46  80 S8        30.01R
MANITOWOC      CLEAR     51  42  71 S6        30.04S
APPLETON       CLEAR     50  39  66 SW10      30.01R
CLINTONVILLE   CLEAR     48  43  81 S7        30.00R
OSHKOSH        CLEAR     51  43  74 S14       30.02S
$$

WIZ032>034-041-042-053>061-181100-
SOUTHWEST WISCONSIN

CITY           SKY/WX    TMP DP  RH WIND       PRES   REMARKS
LA CROSSE      CLEAR     56  46  69 S10       29.96S
SPARTA         CLEAR     52  44  75 S3        29.98S
VIROQUA        CLEAR     50  45  83 S7        29.99S
BOSCOBEL       CLEAR     40  39  97 CALM      30.03R FOG
PRAIRIE DU CHI CLEAR     52  42  68 E5        30.01S
PLATTEVILLE    CLEAR     50  45  83 S9        30.05S
$$

WIZ056-057-062-063-064-067-068-181100-
SOUTH CENTRAL WISCONSIN

CITY           SKY/WX    TMP DP  RH WIND       PRES   REMARKS
REEDSBURG      CLEAR     51  43  74 S10       30.02S
BARABOO/DELLS  CLEAR     51  42  70 S9        30.02F
LONE ROCK      CLEAR     45  42  89 CALM      30.04S
MINERAL POINT  CLEAR     52  45  76 S9        30.05S
MADISON        CLEAR     51  43  74 S9        30.06S
MIDDLETON      CLEAR     51  42  72 S9        30.06S
WATERTOWN      CLEAR     49  43  82 S7        30.07S
MONROE         CLEAR     46  41  81 S12       30.07S
JANESVILLE     CLEAR     50  41  71 S6        30.09S
$$

WIZ051-052-058>065-066-070>072-181100-
SOUTHEAST WISCONSIN

CITY           SKY/WX    TMP DP  RH WIND       PRES   REMARKS
MILWAUKEE      CLEAR     52  42  69 SW8       30.10S
WAUKESHA       CLEAR     48  37  66 S7        30.10S
MILWAUKEE/TIMM CLEAR     50  37  62 SW6       30.09S
RACINE         CLEAR     51  42  71 SW9       30.12S
BURLINGTON     CLEAR     46  42  86 S7        30.11S
KENOSHA        CLEAR     49  41  74 S9        30.12S
FOND DU LAC    CLEAR     54  41  61 SW9       30.04S
SHEBOYGAN      CLEAR     50  43  77 SW7       30.05S
WEST BEND      CLEAR     54  41  62 SW5       30.07R
JUNEAU         CLEAR     49  42  76 S8        30.07S
$$

LSZ147-162-181100-
LAKE SUPERIOR

STATION/POSITION TIME  TEMP    WIND        PRES    WAVE
                       AIR SEA DIR/SP/G            HT/PER
                 (UTC) (F)     (DEG/KT/KT) (MB)    (FT/S)
W MID LAKE BUOY  0950   56 53              1008.8S   2/ 4
DEVILS ISLAND    1000   57     190/  6/  7 1009.1R
PORT WING        0840          180/ 13/ 19 1009.1S
SAXON HARBOR     0940   60     190/  9/ 15 1009.5S
$$

LMZ867-665-643>646-181100-
LAKE MICHIGAN

STATION/POSITION TIME  TEMP    WIND        PRES    WAVE
                       AIR SEA DIR/SP/G            HT/PER
                 (UTC) (F)     (DEG/KT/KT) (MB)    (FT/S)
S GREEN BAY BUOY 1000   58 58  210/ 14/ 17 1015.4
N MID LAKE BUOY  0950   60 59  210/ 16/ 19 1016.0R   5/ 6
NORTHPORT PIER   0940   55     160/  2/  7 1015.2S
KEWAUNEE LAKESHO 0948   54     210/  8/ 10 1015.7R
SHEBOYGAN LAKESH 1000   54     200/ 10/ 11 1017.5R
PORT WASHINGTON  0940   52     210/  4/  6 1019.3S
MILWAUKEE LAKESH 0950   54     210/ 10/ 12   N/A
S MID LAKE BUOY  0950   60 61  240/ 19/ 23 1020.4R   4/ 5
KENOSHA   LAKESH 1000   53     200/  9/ 12 1019.6
$$

TC  - TEMPERATURE IN CELSIUS
VSB - VISIBILITY IN STATUTE MILES
WCI - WIND CHILL INDEX
HX  - HEAT INDEX




USA.gov is the U.S. government's official web portal to all federal, state and local government web resources and services.